This demonstration page uses our WeatherBlox Daily Observations layout. Learn more.

Left ArrowRight Arrow

Hourly Observations for July 17, 2021

Temp ( °F °C ) Dew Point ( °F °C ) Humidity (%) Winds ( mph kmh ) Pressure ( in mb ) Visibility ( mi km ) Precip ( " mm )
12:53 am 00:53 Clear 85 29.4 62 16.7 46 46 SSE 16 26 29.82 1010 10 16 0.00 0.00
1:53 am 01:53 Clear 83 28.3 63 17.2 51 51 SSE 17 28 29.82 1010 10 16 0.00 0.00
2:53 am 02:53 Clear 82 27.8 64 17.8 55 55 SSE 16 26 29.83 1010 10 16 0.00 0.00
3:53 am 03:53 Clear 80 26.7 64 17.8 58 58 SSE 13 20 29.83 1010 10 16 0.00 0.00
4:53 am 04:53 Clear 79 26.1 65 18.3 62 62 SE 16 26 29.82 1010 10 16 0.00 0.00
5:53 am 05:53 Clear 78 25.6 64 17.8 62 62 SSE 17 28 29.84 1010 10 16 0.00 0.00
6:53 am 06:53 Clear 77 25 65 18.3 66 66 SE 12 19 29.86 1011 10 16 0.00 0.00
7:53 am 07:53 Sunny 76 24.4 66 18.9 72 72 SE 17 28 29.89 1012 10 16 0.00 0.00
8:53 am 08:53 Sunny 78 25.6 66 18.9 67 67 SE 21 33 29.90 1013 10 16 0.00 0.00
9:53 am 09:53 Sunny 80 26.7 67 19.4 64 64 SSE 16 26 29.93 1013 10 16 0.00 0.00
10:53 am 10:53 Sunny 83 28.3 67 19.4 59 59 SE 14 22 29.91 1013 10 16 0.00 0.00
11:53 am 11:53 Sunny 87 30.6 68 20 53 53 SE 13 20 29.90 1013 10 16 0.00 0.00
12:53 pm 12:53 Sunny 89 31.7 67 19.4 48 48 SE 10 17 29.90 1012 10 16 0.00 0.00
1:53 pm 13:53 Sunny 94 34.4 65 18.3 38 38 ESE 10 17 29.88 1012 10 16 0.00 0.00
2:53 pm 14:53 Sunny 96 35.6 63 17.2 34 34 ESE 16 26 29.85 1011 10 16 0.00 0.00
3:53 pm 15:53 Sunny 97 36.1 59 15 28 28 ESE 14 22 29.84 1010 10 16 0.00 0.00
4:53 pm 16:53 Sunny 98 36.7 59 15 27 27 ESE 15 24 29.82 1010 10 16 0.00 0.00
5:53 pm 17:53 Sunny 97 36.1 60 15.6 29 29 SE 13 20 29.81 1009 10 16 0.00 0.00
6:53 pm 18:53 Sunny 96 35.6 60 15.6 30 30 SE 13 20 29.81 1010 10 16 0.00 0.00
7:53 pm 19:53 Sunny 95 35 61 16.1 32 32 SE 15 24 29.81 1010 10 16 0.00 0.00
8:53 pm 20:53 Sunny 92 33.3 62 16.7 37 37 SE 13 20 29.84 1011 10 16 0.00 0.00
9:53 pm 21:53 Clear 90 32.2 62 16.7 39 39 SE 13 20 29.86 1011 10 16 0.00 0.00
10:53 pm 22:53 Clear 86 30 64 17.8 48 48 SSE 21 33 29.91 1013 10 16 0.00 0.00
11:53 pm 23:53 Clear 84 28.9 65 18.3 53 53 SE 15 24 29.94 1014 10 16 0.00 0.00

Powered by AerisWeather